This is the latest recevied weather packets stored in our database for station/object KN4DS-3. If no packets are shown the sender has not sent any weather packets the latest 10 day(s).
| Time | Temp. | Humidity | Pressure | Rain* | Wind** | Luminosity | Snow |
|---|---|---|---|---|---|---|---|
| 1777932604 | 25° C | 27% | 1015.2 hPa | 0 mm | - | - | - |
| 1777932304 | 25.56° C | 27% | 1015.1 hPa | 0 mm | - | - | - |
| 1777932004 | 25.56° C | 26% | 1015.1 hPa | 0 mm | - | - | - |
| 1777931704 | 25.56° C | 29% | 1015.1 hPa | 0 mm | - | - | - |
| 1777931405 | 25.56° C | 26% | 1015.1 hPa | 0 mm | - | - | - |
| 1777931104 | 26.11° C | 29% | 1015.1 hPa | 0 mm | - | - | - |
| 1777930804 | 26.11° C | 29% | 1015.1 hPa | 0 mm | - | - | - |
| 1777930504 | 25.56° C | 30% | 1015.1 hPa | 0 mm | - | - | - |
| 1777930205 | 26.11° C | 29% | 1015.1 hPa | 0 mm | - | - | - |
| 1777929904 | 26.11° C | 30% | 1015.1 hPa | 0 mm | - | - | - |
| 1777929604 | 26.11° C | 31% | 1015.1 hPa | 0 mm | - | - | - |
| 1777929304 | 26.11° C | 29% | 1015 hPa | 0 mm | - | - | - |
| 1777929004 | 26.67° C | 31% | 1015.1 hPa | 0 mm | - | - | - |
| 1777928704 | 26.67° C | 29% | 1015.1 hPa | 0 mm | - | - | - |
| 1777928404 | 27.22° C | 30% | 1015.2 hPa | 0 mm | - | - | - |
| 1777928104 | 27.22° C | 30% | 1015.3 hPa | 0 mm | - | - | - |
| 1777927805 | 26.67° C | 29% | 1015.2 hPa | 0 mm | - | - | - |
| 1777927504 | 27.22° C | 30% | 1015.3 hPa | 0 mm | - | - | - |
| 1777927204 | 26.67° C | 31% | 1015.3 hPa | 0 mm | - | - | - |
| 1777926904 | 27.22° C | 29% | 1015.4 hPa | 0 mm | - | - | - |
| 1777926604 | 27.22° C | 29% | 1015.4 hPa | 0 mm | - | - | - |
| 1777926304 | 27.78° C | 29% | 1015.4 hPa | 0 mm | - | - | - |
| 1777926004 | 27.22° C | 29% | 1015.6 hPa | 0 mm | - | - | - |
| 1777925704 | 27.78° C | 29% | 1015.6 hPa | 0 mm | - | - | - |
| 1777925404 | 27.22° C | 29% | 1015.6 hPa | 0 mm | - | - | - |
* Rain latest hour (hover to see other rain measurements)
** Current wind speed in m/s (hover to see current wind gust speed)